Overview Statistics Trail Chart Weather Telemetry Raw packets
 

This is the latest recevied weather packets stored in our database for station/object W8LMG. If no packets are shown the sender has not sent any weather packets the latest 10 day(s).

<< 10 11 12 13 14 15 16 >>
Time Temp. Humidity Pressure Rain* Wind** Luminosity Snow
1788539978 30° C 65% 1019.2 hPa 0 mm - 86 W/m² -
1788539678 30° C 63% 1019.2 hPa 0 mm - 59 W/m² -
1788539378 30.56° C 63% 1019.3 hPa 0 mm - 78 W/m² -
1788539073 30° C 65% 1019.4 hPa 0 mm - 64 W/m² -
1788538769 30° C 65% 1019.4 hPa 0 mm - 61 W/m² -
1788538464 30° C 64% 1019.5 hPa 0 mm - 97 W/m² -
1788538160 30° C 63% 1019.5 hPa 0 mm - 43 W/m² -
1788537860 30° C 65% 1019.6 hPa 0 mm - 65 W/m² -
1788537555 30° C 68% 1019.6 hPa 0 mm - 67 W/m² -
1788537249 30° C 64% 1019.3 hPa 0 mm - 66 W/m² -
1788536949 30° C 68% 1019.5 hPa 0 mm - 64 W/m² -
1788536649 29.44° C 68% 1019.5 hPa 0 mm - 47 W/m² -
1788536344 29.44° C 68% 1019.5 hPa 0 mm - 61 W/m² -
1788536039 29.44° C 71% 1019.5 hPa 0 mm - 58 W/m² -
1788535736 29.44° C 69% 1019.8 hPa 0 mm - 102 W/m² -
1788535435 28.89° C 69% 1019.6 hPa 0 mm - 61 W/m² -
1788535130 29.44° C 71% 1019.3 hPa 0 mm - 51 W/m² -
1788534830 28.89° C 72% 1019.4 hPa 0 mm - 59 W/m² -
1788534526 28.89° C 72% 1019.6 hPa 0 mm - 117 W/m² -
1788534221 28.89° C 75% 1019.5 hPa 0 mm - 49 W/m² -
1788533918 27.78° C 76% 1019.6 hPa 0 mm - 387 W/m² -
1788533615 27.22° C 81% 1019.6 hPa 0 mm - 38 W/m² -
1788533310 26.67° C 89% 1019.4 hPa 0 mm - 36 W/m² -
1788533006 26.67° C 89% 1019.7 hPa 0 mm - 78 W/m² -
1788532701 26.11° C 89% 1019.6 hPa 0 mm - 40 W/m² -

* Rain latest hour (hover to see other rain measurements)
** Current wind speed in m/s (hover to see current wind gust speed)